Vorticity
nan nan nan nan nan nan nan nan nan nan nan nan nan nan nan nan nan nan nan nan nan nan
nan 6 7 9 6 7 8 7 10 8 7 7 7 6 5 7 8 9 9 12 10 nan
nan 7 5 8 9 6 6 6 6 7 6 6 6 7 7 6 8 9 9 10 10 nan
nan 10 7 6 7 7 7 7 6 6 6 6 7 7 9 11 11 7 5 3 7 nan
nan 9 9 8 8 8 8 8 9 8 8 8 9 8 10 11 8 5 4 7 10 nan
nan 9 9 9 9 9 9 9 10 10 9 10 10 10 9 7 5 8 10 14 13 nan
nan 9 9 9 10 10 10 10 9 9 9 9 10 13 9 9 10 11 14 17 16 nan
nan 9 9 10 10 10 9 9 9 8 9 10 12 14 15 13 14 17 15 14 14 nan
nan 10 10 9 9 9 9 9 12 16 17 16 12 17 24 22 18 18 16 12 10 nan
nan 12 12 13 14 15 14 14 14 17 19 17 15 20 22 21 17 15 13 12 10 nan
nan 14 15 16 14 15 18 18 15 11 12 11 12 14 13 13 12 11 10 10 12 nan
nan 12 13 14 14 12 11 10 11 12 11 11 10 10 13 9 8 8 7 9 11 nan
nan 13 12 10 10 11 11 11 10 10 9 11 10 11 16 14 10 8 7 7 5 nan
nan nan nan nan nan nan nan nan nan nan nan nan nan nan nan nan nan nan nan nan nan nan
CAPE
25 17 22 46 59 36 56 94 80 110 122 160 202 267 229 234 244 255 305 336 329 349
24 21 16 15 37 52 25 46 103 62 64 50 47 50 69 107 169 284 405 395 545 534
14 16 17 15 10 11 11 1 10 16 25 17 9 27 86 188 209 239 322 226 170 84
9 10 10 12 14 4 3 1 0 0 11 21 14 75 148 197 168 92 31 36 13 6
4 6 7 4 6 11 6 7 3 3 1 2 17 59 133 43 0 0 1 2 8 2
3 5 16 23 15 8 6 9 10 7 8 4 29 5 38 2 0 0 6 6 7 0
0 0 4 5 5 9 7 1 1 1 0 1 2 5 33 30 2 0 1 1 0 0
0 0 0 0 0 0 0 0 0 0 11 48 87 131 130 1 0 0 0 0 0 0
0 0 0 0 0 0 0 3 4 38 57 117 0 0 1 1 0 0 0 0 2 1
15 2 0 0 3 8 19 33 2 0 0 2 1 1 1 0 0 0 1 0 1 2
12 7 1 6 3 1 3 3 3 2 1 1 1 0 0 0 0 0 0 0 0 1
7 1 1 0 2 1 1 1 2 2 2 2 2 0 0 0 0 0 2 2 2 1
0 0 1 1 1 1 1 2 2 3 3 1 2 0 0 0 0 0 0 0 0 0
1 1 1 1 1 1 2 2 1 1 1 2 1 1 0 0 0 0 0 0 0 0